Location: Melara
(45.0500°N, 11.1833°E)
Time: 20:15:43
(UTC+00:00)

Cosmos 2184 Rocket - Pass Details

Date: 26 May 2022
Orbit: 958 x 1003 km, 82.9° (Epoch: 02 July)

Event Time Altitude Azimuth Distance (km) Brightness Sun altitude
Rises 01:35:38 0° 348° (NNW) 3,698 7.7 -16.2°
Reaches altitude 10° 01:38:12 10° 344° (NNW) 2,739 6.9 -16.0°
Maximum altitude 01:44:19 57° 268° (W) 1,131 4.1 -15.3°
Enters shadow 01:48:46 19° 195° (SSW) 2,137 5.2 -14.9°
